• In India
  • List of Countries
  • For 7 days
  • Water Temperature
  • Satellite Maps
  • Weather Map
  • Weather Widgets
  • user-avatar
    Login

    Hourly Weather Skrzydlowo

    Today, 19 December, Wednesday

    Time Temperature Precipitation Wind Pressure Humidity
    00:00 0°C° 0 mm 4 mps 765 mmHg 96%
    01:00 -1°C° 0 mm 4 mps 765 mmHg 96%
    02:00 -1°C° 0 mm 4 mps 765 mmHg 95%
    03:00 -1°C° 0 mm 5 mps 765 mmHg 95%
    04:00 -1°C° 0 mm 5 mps 764 mmHg 94%
    05:00 -1°C° 0 mm 5 mps 764 mmHg 93%
    06:00 -2°C° 0 mm 6 mps 764 mmHg 91%
    07:00 -3°C° 0 mm 6 mps 763 mmHg 90%
    08:00 -3°C° 0 mm 7 mps 763 mmHg 85%
    09:00 -2°C° 0 mm 7 mps 763 mmHg 81%
    10:00 -2°C° 0 mm 8 mps 762 mmHg 76%
    11:00 -2°C° 0 mm 8 mps 762 mmHg 76%
    12:00 -2°C° 0 mm 7 mps 762 mmHg 76%
    13:00 -1°C° 0 mm 7 mps 761 mmHg 76%
    14:00 -2°C° 0 mm 7 mps 761 mmHg 78%
    15:00 -2°C° 0 mm 7 mps 761 mmHg 80%
    16:00 -2°C° 0 mm 6 mps 760 mmHg 82%
    17:00 -2°C° 0 mm 6 mps 760 mmHg 82%
    18:00 -2°C° 0 mm 6 mps 760 mmHg 82%
    19:00 -1°C° 0 mm 5 mps 760 mmHg 82%
    20:00 -1°C° 0 mm 5 mps 760 mmHg 82%
    21:00 -1°C° 0 mm 5 mps 760 mmHg 82%
    22:00 -1°C° 0 mm 5 mps 759 mmHg 82%
    23:00 -1°C° 0 mm 5 mps 759 mmHg 83%

    Tomorrow, 20 December, Thursday

    Time Temperature Precipitation Wind Pressure Humidity
    00:00 -1°C° 0 mm 5 mps 759 mmHg 84%
    01:00 -1°C° 0 mm 4 mps 759 mmHg 85%
    02:00 -1°C° 0.1 mm 4 mps 759 mmHg 87%
    03:00 -1°C° 0.1 mm 4 mps 759 mmHg 88%
    04:00 -1°C° 0.1 mm 4 mps 759 mmHg 90%
    05:00 -1°C° 0.1 mm 4 mps 759 mmHg 91%
    06:00 -1°C° 0.1 mm 4 mps 759 mmHg 92%
    07:00 -1°C° 0.1 mm 4 mps 759 mmHg 93%
    08:00 -1°C° 0.2 mm 4 mps 759 mmHg 93%
    09:00 -1°C° 0.2 mm 4 mps 759 mmHg 93%
    10:00 -1°C° 0.2 mm 4 mps 759 mmHg 93%
    11:00 -1°C° 0.1 mm 4 mps 759 mmHg 92%
    12:00 0°C° 0.1 mm 4 mps 759 mmHg 92%
    13:00 0°C° 0.1 mm 4 mps 758 mmHg 91%
    14:00 0°C° 0 mm 4 mps 758 mmHg 92%
    15:00 0°C° 0 mm 4 mps 758 mmHg 93%
    16:00 +1°C° 0 mm 3 mps 758 mmHg 94%
    17:00 0°C° 0 mm 4 mps 758 mmHg 95%
    18:00 0°C° 0 mm 4 mps 758 mmHg 95%
    19:00 0°C° 0 mm 4 mps 758 mmHg 95%
    20:00 0°C° 0 mm 4 mps 758 mmHg 95%
    21:00 0°C° 0 mm 4 mps 758 mmHg 95%
    22:00 0°C° 0 mm 4 mps 758 mmHg 96%
    23:00 0°C° 0 mm 4 mps 757 mmHg 96%

    Day after tomorrow, 21 December, Friday

    Time Temperature Precipitation Wind Pressure Humidity
    00:00 0°C° 0 mm 4 mps 757 mmHg 96%
    01:00 0°C° 0 mm 4 mps 757 mmHg 96%
    02:00 0°C° 0 mm 4 mps 757 mmHg 96%
    03:00 0°C° 0 mm 4 mps 756 mmHg 96%
    04:00 0°C° 0 mm 4 mps 756 mmHg 96%
    05:00 0°C° 0.1 mm 4 mps 756 mmHg 95%
    06:00 +1°C° 0.1 mm 5 mps 755 mmHg 95%
    07:00 +1°C° 0.1 mm 5 mps 755 mmHg 95%
    08:00 +1°C° 0 mm 5 mps 755 mmHg 94%
    09:00 +1°C° 0 mm 5 mps 754 mmHg 94%
    10:00 +1°C° 0 mm 5 mps 754 mmHg 94%
    11:00 +2°C° 0 mm 5 mps 754 mmHg 93%
    12:00 +2°C° 0 mm 5 mps 753 mmHg 93%
    13:00 +3°C° 0 mm 4 mps 752 mmHg 92%
    14:00 +2°C° 0 mm 5 mps 752 mmHg 93%
    15:00 +2°C° 0 mm 5 mps 751 mmHg 93%
    16:00 +2°C° 0 mm 5 mps 751 mmHg 94%
    17:00 +1°C° 0.1 mm 5 mps 750 mmHg 94%
    18:00 +1°C° 0.1 mm 5 mps 749 mmHg 94%
    19:00 +1°C° 0.1 mm 5 mps 749 mmHg 94%
    20:00 +1°C° 0.3 mm 5 mps 748 mmHg 93%
    21:00 +1°C° 0.3 mm 6 mps 747 mmHg 93%
    22:00 +1°C° 0.3 mm 6 mps 746 mmHg 93%
    23:00 +1°C° 1.1 mm 5 mps 746 mmHg 93%

    22 December, Saturday

    Time Temperature Precipitation Wind Pressure Humidity
    00:00 +1°C° 1.1 mm 5 mps 746 mmHg 93%
    01:00 +1°C° 1.1 mm 4 mps 745 mmHg 93%
    02:00 +2°C° 0.6 mm 5 mps 745 mmHg 92%
    03:00 +3°C° 0.6 mm 5 mps 745 mmHg 91%
    04:00 +3°C° 0.6 mm 6 mps 745 mmHg 89%
    05:00 +4°C° 0.5 mm 6 mps 745 mmHg 89%
    06:00 +4°C° 0.5 mm 6 mps 745 mmHg 88%
    07:00 +4°C° 0.5 mm 6 mps 745 mmHg 87%
    08:00 +5°C° 0.3 mm 6 mps 745 mmHg 87%
    09:00 +5°C° 0.3 mm 6 mps 745 mmHg 86%
    10:00 +5°C° 0.3 mm 6 mps 745 mmHg 85%
    11:00 +5°C° 0.3 mm 6 mps 745 mmHg 85%
    12:00 +6°C° 0.3 mm 5 mps 745 mmHg 85%
    13:00 +6°C° 0.3 mm 5 mps 745 mmHg 84%
    14:00 +6°C° 0.6 mm 5 mps 746 mmHg 86%
    15:00 +4°C° 0.6 mm 6 mps 746 mmHg 88%
    16:00 +4°C° 0.6 mm 6 mps 747 mmHg 89%
    17:00 +3°C° 0.2 mm 6 mps 748 mmHg 88%
    18:00 +3°C° 0.2 mm 7 mps 749 mmHg 87%
    19:00 +2°C° 0.2 mm 7 mps 750 mmHg 87%
    20:00 +2°C° 0.1 mm 6 mps 752 mmHg 86%
    21:00 +2°C° 0.1 mm 6 mps 753 mmHg 86%
    22:00 +2°C° 0.1 mm 5 mps 754 mmHg 85%
    23:00 +3°C° 0 mm 4 mps 755 mmHg 87%

    23 December, Sunday

    Time Temperature Precipitation Wind Pressure Humidity
    00:00 +1°C° 0 mm 4 mps 756 mmHg 88%
    01:00 +2°C° 0 mm 3 mps 757 mmHg 90%
    02:00 +3°C° 0 mm 2 mps 757 mmHg 90%
    03:00 +2°C° 0 mm 2 mps 757 mmHg 91%
    04:00 +3°C° 0 mm 1 mps 758 mmHg 91%
    05:00 +3°C° 0 mm 1 mps 758 mmHg 92%
    06:00 +3°C° 0 mm 1 mps 758 mmHg 92%
    07:00 +3°C° 0 mm 1 mps 758 mmHg 92%
    08:00 +2°C° 0 mm 2 mps 758 mmHg 92%
    09:00 +2°C° 0 mm 2 mps 759 mmHg 93%
    10:00 +1°C° 0 mm 3 mps 759 mmHg 93%
    11:00 +2°C° 0.6 mm 3 mps 759 mmHg 92%
    12:00 +2°C° 0.6 mm 3 mps 759 mmHg 92%
    13:00 +3°C° 0.6 mm 4 mps 758 mmHg 92%
    14:00 +3°C° 0.6 mm 4 mps 758 mmHg 92%
    15:00 +3°C° 0.6 mm 4 mps 758 mmHg 91%
    16:00 +2°C° 0.6 mm 5 mps 758 mmHg 91%
    17:00 +2°C° 0.7 mm 5 mps 758 mmHg 91%
    18:00 +3°C° 0.7 mm 5 mps 758 mmHg 90%
    19:00 +3°C° 0.7 mm 6 mps 758 mmHg 89%
    20:00 +3°C° 0.4 mm 6 mps 758 mmHg 89%
    21:00 +3°C° 0.4 mm 7 mps 758 mmHg 90%
    22:00 +3°C° 0.4 mm 7 mps 758 mmHg 90%
    23:00 +3°C° 0.3 mm 7 mps 758 mmHg 90%

    24 December, Monday

    Time Temperature Precipitation Wind Pressure Humidity
    00:00 +3°C° 0.3 mm 7 mps 758 mmHg 89%
    01:00 +3°C° 0.3 mm 7 mps 758 mmHg 88%
    02:00 +3°C° 0 mm 7 mps 759 mmHg 87%
    03:00 +3°C° 0 mm 7 mps 759 mmHg 86%
    04:00 +2°C° 0 mm 7 mps 760 mmHg 86%
    05:00 +2°C° 0 mm 6 mps 760 mmHg 86%
    06:00 +2°C° 0 mm 5 mps 761 mmHg 86%
    07:00 +1°C° 0 mm 4 mps 762 mmHg 87%
    08:00 +1°C° 0 mm 4 mps 762 mmHg 87%
    09:00 +1°C° 0 mm 4 mps 763 mmHg 86%
    10:00 +3°C° 0 mm 4 mps 763 mmHg 86%
    11:00 +3°C° 0 mm 4 mps 764 mmHg 85%
    12:00 +2°C° 0 mm 5 mps 764 mmHg 85%
    13:00 +2°C° 0 mm 5 mps 764 mmHg 84%
    14:00 +2°C° 0 mm 5 mps 765 mmHg 84%
    15:00 +2°C° 0 mm 5 mps 765 mmHg 83%
    16:00 +3°C° 0 mm 4 mps 765 mmHg 83%
    17:00 +1°C° 0 mm 4 mps 765 mmHg 83%
    18:00 +1°C° 0 mm 4 mps 766 mmHg 83%
    19:00 +1°C° 0 mm 4 mps 766 mmHg 84%
    20:00 +2°C° 0 mm 3 mps 766 mmHg 85%
    21:00 +2°C° 0 mm 3 mps 766 mmHg 87%
    22:00 +1°C° 0 mm 3 mps 767 mmHg 88%
    23:00 +2°C° 0 mm 3 mps 766 mmHg 89%
    Show more